User: anonymous   Login
Location: Unspecified
(0.0000°N, 0.0000°E)
Time: 23:38:52
(UTC+00:00)
Language:

USA 176 - Orbit

View from above orbital plane
View from above orbital plane
View from above satellite
View from above satellite

Ground track
Ground track

The orbit data is extracted from the following two-line orbital elements,

1 28158U 04004A   14298.87034215 0.00000000  00000-0  00000-0 0    09
2 28158   6.1694  53.0834 0002184  36.9402 323.1110  1.00270000    05
Epoch (UTC): 25 October 2014 20:53:17
Eccentricity: 0.0002184
inclination: 6.1694°
perigee height: 35777 km
apogee height: 35796 km
right ascension of ascending node: 53.0834°
argument of perigee: 36.9402°
revolutions per day: 1.00270000
mean anomaly at epoch: 323.1110°
orbit number at epoch: 0

The dashed part of the orbit path shows where the satellite is in the earth's shadow,  

DLR